PROGRESS-MS 07

Last updated on Thu Apr 26 2018 00:15:05 GMT+0000 (Coordinated Universal Time)

1 42971U 17065A 18115.08198212 .00005067 00000-0 86468-4 0 9993 2 42971 51.6435 283.9150 0038164 331.7243 134.0149 15.52527452 29979
UTC large
Height (km)
Speed (km/s)
/
Latitude / Longitude
Inclination (degrees)
Orbital Period (minutes)
Azimuth
Elevation
Range (km)
Doppler Factor

Next 0 passes for location: London (51.5072 / 0.1276)

Sorry there are no passes over London.